Weather in Artemyevo

Russia / Ivanovo Oblast     56°41′07″N   41°12′21″E
temp.,
°C
wind,
m/s
gust,
m/s
humid.,
%
clouds,
%
prec.,
mm/h
press.,
hPa
HPBL,
m
19 january, tue
tue1900:00−21nw1197100 0.0 101920
03:00−20se0197100 0.0 101920
06:00−19sw1197100 0.0 101820
09:00−18sw1197100 0.1 101857
12:00−15w1292100 0.1 1018229
15:00−14w1293100 0.4 1016229
18:00−15wnw1197100 0.1 101720
21:00−15w129797 0.3 101637
20 january, wed
wed2000:00−15wnw229793 0.1 101636
03:00−15wnw229793 0.3 101685
06:00−15wnw249774 0.1 1016105
09:00−14w259679 0.2 1017145
12:00−12w259396 0.2 1017252
15:00−11w369493 0.3 1017292
18:00−15w259779 0.0 1018114
21:00−16w279778 0.0 1019146
21 january, thu
thu2100:00−16wsw259784 0.0 1019120
03:00−17wsw259752 0.0 1020108
06:00−15sw3892100 0.0 1018230
09:00−15ssw41089100 0.0 1016282
12:00−12s51188100 0.0 1013401
15:00−10sw51094100 1.9 1010724
18:00−9sw41094100 0.9 1008624
21:00−8sw3995100 1.6 1008471
22 january, fri
fri2200:00−7sw2696100 0.6 1007241
03:00−6s1297100 1.1 100782
06:00−5ese2397100 0.7 100796
09:00−4ese2498100 1.2 100893
12:000ssw14100100 0.1 1008188
15:00+1sw2699100 0.1 1009227
18:000ssw2798100 0.0 1009288
21:000sw3898100 0.1 1009410
23 january, sat
sat2300:000s3798100 0.1 1009319
03:00+1sw41098100 0.8 1008525
06:00+1sw4997100 0.1 1008430
09:00+1ssw41098100 0.3 1008300
12:00+1ssw51197100 0.8 1008445
15:00+1ssw41198100 1.3 1008395
18:00+2sw41198100 0.3 1009425
21:00+1sw3798100 0.4 1010277